Time,TemperatureF,DewpointF,PressureIn,WindDirection,WindDirectionDegrees,WindSpeedMPH,WindSpeedGustMPH,Humidity,HourlyPrecipIn,Conditions,Clouds,dailyrainin,SoftwareType,DateUTC
2013-05-27 00:00:00,66.0,56.3,30.06,East,90,1.0,4.0,71,0.00,,,0.00,Weather View 32 v70,2013-05-27 04:00:00,
2013-05-27 00:01:00,66.0,56.3,30.06,South,180,1.0,4.0,71,0.00,,,0.00,Weather View 32 v70,2013-05-27 04:01:00,
2013-05-27 00:02:00,66.0,56.3,30.06,SSE,158,0.0,4.0,71,0.00,,,0.00,Weather View 32 v70,2013-05-27 04:02:00,
2013-05-27 00:07:00,66.0,55.9,30.06,South,180,1.0,4.0,70,0.00,,,0.00,Weather View 32 v70,2013-05-27 04:07:00,
2013-05-27 00:12:00,66.0,55.9,30.06,West,270,2.0,4.0,70,0.00,,,0.00,Weather View 32 v70,2013-05-27 04:12:00,
2013-05-27 00:17:00,66.0,55.9,30.06,South,180,1.0,4.0,70,0.00,,,0.00,Weather View 32 v70,2013-05-27 04:17:00,
2013-05-27 00:22:00,66.0,55.9,30.07,South,180,1.0,4.0,70,0.00,,,0.00,Weather View 32 v70,2013-05-27 04:22:00,
2013-05-27 00:27:00,66.0,56.3,30.06,South,180,1.0,4.0,71,0.00,,,0.00,Weather View 32 v70,2013-05-27 04:27:00,
2013-05-27 00:32:00,66.0,55.9,30.06,East,90,1.0,4.0,70,0.00,,,0.00,Weather View 32 v70,2013-05-27 04:32:00,
2013-05-27 00:37:00,66.0,56.3,30.06,East,90,1.0,5.0,71,0.00,,,0.00,Weather View 32 v70,2013-05-27 04:37:00,
2013-05-27 00:42:00,66.0,56.7,30.07,South,180,1.0,5.0,72,0.00,,,0.00,Weather View 32 v70,2013-05-27 04:42:00,
2013-05-27 00:47:00,66.0,56.3,30.07,East,90,0.0,5.0,71,0.00,,,0.00,Weather View 32 v70,2013-05-27 04:47:00,
2013-05-27 00:52:00,66.0,56.3,30.07,SSE,158,1.0,5.0,71,0.00,,,0.00,Weather View 32 v70,2013-05-27 04:52:00,
2013-05-27 00:57:00,66.0,56.3,30.07,SSE,158,2.0,5.0,71,0.00,,,0.00,Weather View 32 v70,2013-05-27 04:57:00,
2013-05-27 01:02:00,66.0,56.7,30.07,ENE,68,1.0,5.0,72,0.00,,,0.00,Weather View 32 v70,2013-05-27 05:02:00,
2013-05-27 01:07:00,66.0,56.7,30.07,SSE,158,1.0,5.0,72,0.00,,,0.00,Weather View 32 v70,2013-05-27 05:07:00,
2013-05-27 01:12:00,66.0,56.7,30.07,SSE,158,0.0,5.0,72,0.00,,,0.00,Weather View 32 v70,2013-05-27 05:12:00,
2013-05-27 01:17:00,66.0,56.7,30.07,South,180,3.0,5.0,72,0.00,,,0.00,Weather View 32 v70,2013-05-27 05:17:00,
2013-05-27 01:22:00,66.0,56.7,30.07,South,180,2.0,5.0,72,0.00,,,0.00,Weather View 32 v70,2013-05-27 05:22:00,
2013-05-27 01:27:00,66.0,57.1,30.07,South,180,3.0,5.0,73,0.00,,,0.00,Weather View 32 v70,2013-05-27 05:27:00,
2013-05-27 01:32:00,65.0,56.1,30.07,East,90,5.0,5.0,73,0.00,,,0.00,Weather View 32 v70,2013-05-27 05:32:00,
2013-05-27 01:37:00,65.0,56.1,30.07,SSE,158,5.0,5.0,73,0.00,,,0.00,Weather View 32 v70,2013-05-27 05:37:00,
2013-05-27 01:42:00,65.0,56.1,30.07,East,90,3.0,6.0,73,0.00,,,0.00,Weather View 32 v70,2013-05-27 05:42:00,
2013-05-27 01:47:00,65.0,56.1,30.08,East,90,4.0,6.0,73,0.00,,,0.00,Weather View 32 v70,2013-05-27 05:47:00,
2013-05-27 01:52:00,65.0,56.5,30.07,SSE,158,4.0,8.0,74,0.00,,,0.00,Weather View 32 v70,2013-05-27 05:52:00,
2013-05-27 01:57:00,65.0,56.5,30.07,SSE,158,4.0,8.0,74,0.00,,,0.00,Weather View 32 v70,2013-05-27 05:57:00,
2013-05-27 02:02:00,65.0,56.1,30.07,ENE,68,1.0,8.0,73,0.00,,,0.00,Weather View 32 v70,2013-05-27 06:02:00,
2013-05-27 02:07:00,65.0,56.1,30.07,South,180,2.0,8.0,73,0.00,,,0.00,Weather View 32 v70,2013-05-27 06:07:00,
2013-05-27 02:12:00,65.0,55.7,30.07,ENE,68,1.0,8.0,72,0.00,,,0.00,Weather View 32 v70,2013-05-27 06:12:00,
2013-05-27 02:17:00,65.0,55.7,30.07,SSE,158,3.0,8.0,72,0.00,,,0.00,Weather View 32 v70,2013-05-27 06:17:00,
2013-05-27 02:22:00,65.0,55.7,30.07,WSW,248,2.0,8.0,72,0.00,,,0.00,Weather View 32 v70,2013-05-27 06:22:00,
2013-05-27 02:27:00,65.0,55.7,30.07,East,90,3.0,8.0,72,0.00,,,0.00,Weather View 32 v70,2013-05-27 06:27:00,
2013-05-27 02:32:00,65.0,55.7,30.06,SSE,158,1.0,8.0,72,0.00,,,0.00,Weather View 32 v70,2013-05-27 06:32:00,
2013-05-27 02:37:00,65.0,55.7,30.07,SSE,158,5.0,8.0,72,0.00,,,0.00,Weather View 32 v70,2013-05-27 06:37:00,
2013-05-27 02:42:00,65.0,55.7,30.07,SSE,158,1.0,8.0,72,0.00,,,0.00,Weather View 32 v70,2013-05-27 06:42:00,
2013-05-27 02:47:00,65.0,56.1,30.06,SSE,158,3.0,8.0,73,0.00,,,0.00,Weather View 32 v70,2013-05-27 06:47:00,
2013-05-27 02:52:00,65.0,56.1,30.06,South,180,3.0,7.0,73,0.00,,,0.00,Weather View 32 v70,2013-05-27 06:52:00,
2013-05-27 02:57:00,65.0,56.1,30.06,East,90,3.0,7.0,73,0.00,,,0.00,Weather View 32 v70,2013-05-27 06:57:00,
2013-05-27 03:02:00,65.0,56.1,30.06,SSE,158,2.0,7.0,73,0.00,,,0.00,Weather View 32 v70,2013-05-27 07:02:00,
2013-05-27 03:07:00,64.0,56.3,30.06,East,90,3.0,7.0,76,0.00,,,0.00,Weather View 32 v70,2013-05-27 07:07:00,
2013-05-27 03:12:00,64.0,57.0,30.06,East,90,1.0,7.0,78,0.00,,,0.00,Weather View 32 v70,2013-05-27 07:12:00,
2013-05-27 03:17:00,64.0,57.0,30.06,East,90,3.0,7.0,78,0.00,,,0.00,Weather View 32 v70,2013-05-27 07:17:00,
2013-05-27 03:22:00,64.0,57.0,30.06,East,90,2.0,7.0,78,0.00,,,0.00,Weather View 32 v70,2013-05-27 07:22:00,
2013-05-27 03:27:00,63.0,56.4,30.06,East,90,0.0,7.0,79,0.00,,,0.00,Weather View 32 v70,2013-05-27 07:27:00,
2013-05-27 03:32:00,63.0,56.4,30.06,ENE,68,0.0,7.0,79,0.00,,,0.00,Weather View 32 v70,2013-05-27 07:32:00,
2013-05-27 03:37:00,63.0,56.4,30.06,ENE,68,0.0,7.0,79,0.00,,,0.00,Weather View 32 v70,2013-05-27 07:37:00,
2013-05-27 03:42:00,63.0,56.7,30.06,WSW,248,0.0,7.0,80,0.00,,,0.00,Weather View 32 v70,2013-05-27 07:42:00,
2013-05-27 03:47:00,63.0,57.1,30.06,East,90,0.0,7.0,81,0.00,,,0.00,Weather View 32 v70,2013-05-27 07:47:00,
2013-05-27 03:52:00,62.0,56.1,30.06,East,90,0.0,7.0,81,0.00,,,0.00,Weather View 32 v70,2013-05-27 07:52:00,
2013-05-27 03:57:00,62.0,56.4,30.06,East,90,0.0,6.0,82,0.00,,,0.00,Weather View 32 v70,2013-05-27 07:57:00,
2013-05-27 04:02:00,62.0,56.8,30.06,East,90,1.0,5.0,83,0.00,,,0.00,Weather View 32 v70,2013-05-27 08:02:00,
2013-05-27 04:07:00,62.0,56.8,30.06,East,90,3.0,4.0,83,0.00,,,0.00,Weather View 32 v70,2013-05-27 08:07:00,
2013-05-27 04:12:00,62.0,57.1,30.06,East,90,3.0,4.0,84,0.00,,,0.00,Weather View 32 v70,2013-05-27 08:12:00,
2013-05-27 04:17:00,62.0,57.1,30.06,SSE,158,3.0,5.0,84,0.00,,,0.00,Weather View 32 v70,2013-05-27 08:17:00,
2013-05-27 04:22:00,62.0,57.4,30.06,SSE,158,5.0,5.0,85,0.00,,,0.00,Weather View 32 v70,2013-05-27 08:22:00,
2013-05-27 04:27:00,62.0,57.1,30.06,East,90,2.0,5.0,84,0.00,,,0.00,Weather View 32 v70,2013-05-27 08:27:00,
2013-05-27 04:32:00,62.0,56.8,30.07,SSE,158,3.0,5.0,83,0.00,,,0.00,Weather View 32 v70,2013-05-27 08:32:00,
2013-05-27 04:37:00,62.0,56.8,30.07,SSE,158,1.0,5.0,83,0.00,,,0.00,Weather View 32 v70,2013-05-27 08:37:00,
2013-05-27 04:42:00,62.0,56.8,30.07,SSE,158,4.0,5.0,83,0.00,,,0.00,Weather View 32 v70,2013-05-27 08:42:00,
2013-05-27 04:47:00,62.0,56.8,30.07,South,180,1.0,6.0,83,0.00,,,0.00,Weather View 32 v70,2013-05-27 08:47:00,
2013-05-27 04:52:00,62.0,56.8,30.07,SSE,158,3.0,6.0,83,0.00,,,0.00,Weather View 32 v70,2013-05-27 08:52:00,
2013-05-27 04:57:00,62.0,56.8,30.07,South,180,2.0,6.0,83,0.00,,,0.00,Weather View 32 v70,2013-05-27 08:57:00,
2013-05-27 05:02:00,62.0,56.8,30.07,East,90,0.0,6.0,83,0.00,,,0.00,Weather View 32 v70,2013-05-27 09:02:00,
2013-05-27 05:07:00,62.0,56.8,30.07,East,90,1.0,6.0,83,0.00,,,0.00,Weather View 32 v70,2013-05-27 09:07:00,
2013-05-27 05:12:00,62.0,57.1,30.07,East,90,0.0,6.0,84,0.00,,,0.00,Weather View 32 v70,2013-05-27 09:12:00,
2013-05-27 05:17:00,62.0,57.4,30.07,East,90,0.0,6.0,85,0.00,,,0.00,Weather View 32 v70,2013-05-27 09:17:00,
2013-05-27 05:22:00,61.0,56.4,30.07,East,90,0.0,6.0,85,0.00,,,0.00,Weather View 32 v70,2013-05-27 09:22:00,
2013-05-27 05:27:00,61.0,56.4,30.08,WSW,248,0.0,6.0,85,0.00,,,0.00,Weather View 32 v70,2013-05-27 09:27:00,
2013-05-27 05:32:00,61.0,56.8,30.08,West,270,0.0,6.0,86,0.00,,,0.00,Weather View 32 v70,2013-05-27 09:32:00,
2013-05-27 05:37:00,61.0,56.8,30.08,South,180,0.0,6.0,86,0.00,,,0.00,Weather View 32 v70,2013-05-27 09:37:00,
2013-05-27 05:42:00,61.0,57.1,30.08,South,180,0.0,6.0,87,0.00,,,0.00,Weather View 32 v70,2013-05-27 09:42:00,
2013-05-27 05:47:00,61.0,57.4,30.08,South,180,0.0,5.0,88,0.00,,,0.00,Weather View 32 v70,2013-05-27 09:47:00,
2013-05-27 05:52:00,61.0,57.4,30.09,East,90,0.0,5.0,88,0.00,,,0.00,Weather View 32 v70,2013-05-27 09:52:00,
2013-05-27 05:57:00,60.0,56.7,30.09,East,90,0.0,5.0,89,0.00,,,0.00,Weather View 32 v70,2013-05-27 09:57:00,
2013-05-27 06:02:00,60.0,57.0,30.09,East,90,0.0,3.0,90,0.00,,,0.00,Weather View 32 v70,2013-05-27 10:02:00,
2013-05-27 06:07:00,60.0,57.0,30.09,East,90,0.0,3.0,90,0.00,,,0.00,Weather View 32 v70,2013-05-27 10:07:00,
2013-05-27 06:12:00,60.0,57.0,30.09,East,90,0.0,1.0,90,0.00,,,0.00,Weather View 32 v70,2013-05-27 10:12:00,
2013-05-27 06:18:00,60.0,57.4,30.09,East,90,0.0,0.0,91,0.00,,,0.00,Weather View 32 v70,2013-05-27 10:18:00,
2013-05-27 06:23:00,60.0,57.4,30.09,East,90,0.0,0.0,91,0.00,,,0.00,Weather View 32 v70,2013-05-27 10:23:00,
2013-05-27 06:28:00,60.0,57.7,30.09,East,90,0.0,0.0,92,0.00,,,0.00,Weather View 32 v70,2013-05-27 10:28:00,
2013-05-27 06:33:00,60.0,58.0,30.09,ENE,68,0.0,0.0,93,0.00,,,0.00,Weather View 32 v70,2013-05-27 10:33:00,
2013-05-27 06:38:00,60.0,58.0,30.10,East,90,0.0,0.0,93,0.00,,,0.00,Weather View 32 v70,2013-05-27 10:38:00,
2013-05-27 06:43:00,60.0,58.0,30.10,ENE,68,0.0,0.0,93,0.00,,,0.00,Weather View 32 v70,2013-05-27 10:43:00,
2013-05-27 06:48:00,60.0,58.3,30.10,East,90,0.0,0.0,94,0.00,,,0.00,Weather View 32 v70,2013-05-27 10:48:00,
2013-05-27 06:53:00,60.0,58.3,30.10,ENE,68,0.0,0.0,94,0.00,,,0.00,Weather View 32 v70,2013-05-27 10:53:00,
2013-05-27 06:58:00,60.0,58.3,30.10,East,90,0.0,0.0,94,0.00,,,0.00,Weather View 32 v70,2013-05-27 10:58:00,
2013-05-27 07:03:00,60.0,58.3,30.11,ENE,68,0.0,0.0,94,0.00,,,0.00,Weather View 32 v70,2013-05-27 11:03:00,
2013-05-27 07:08:00,60.0,58.3,30.11,East,90,0.0,0.0,94,0.00,,,0.00,Weather View 32 v70,2013-05-27 11:08:00,
2013-05-27 07:13:00,60.0,58.6,30.11,North,0,0.0,0.0,95,0.00,,,0.00,Weather View 32 v70,2013-05-27 11:13:00,
2013-05-27 07:18:00,60.0,58.6,30.11,North,0,0.0,0.0,95,0.00,,,0.00,Weather View 32 v70,2013-05-27 11:18:00,
2013-05-27 07:23:00,61.0,59.6,30.11,West,270,0.0,1.0,95,0.00,,,0.00,Weather View 32 v70,2013-05-27 11:23:00,
2013-05-27 07:28:00,61.0,59.6,30.12,WSW,248,0.0,1.0,95,0.00,,,0.00,Weather View 32 v70,2013-05-27 11:28:00,
2013-05-27 07:33:00,61.0,59.6,30.12,West,270,0.0,1.0,95,0.00,,,0.00,Weather View 32 v70,2013-05-27 11:33:00,
2013-05-27 07:38:00,62.0,60.5,30.12,West,270,0.0,1.0,95,0.00,,,0.00,Weather View 32 v70,2013-05-27 11:38:00,
2013-05-27 07:43:00,62.0,60.2,30.12,West,270,0.0,1.0,94,0.00,,,0.00,Weather View 32 v70,2013-05-27 11:43:00,
2013-05-27 07:48:00,62.0,60.2,30.12,West,270,0.0,2.0,94,0.00,,,0.00,Weather View 32 v70,2013-05-27 11:48:00,
2013-05-27 07:53:00,63.0,60.9,30.12,NNW,338,1.0,3.0,93,0.00,,,0.00,Weather View 32 v70,2013-05-27 11:53:00,
2013-05-27 07:58:00,63.0,60.9,30.12,WSW,248,1.0,3.0,93,0.00,,,0.00,Weather View 32 v70,2013-05-27 11:58:00,
2013-05-27 08:03:00,63.0,60.6,30.13,WSW,248,2.0,3.0,92,0.00,,,0.00,Weather View 32 v70,2013-05-27 12:03:00,
2013-05-27 08:08:00,64.0,61.6,30.13,West,270,0.0,3.0,92,0.00,,,0.00,Weather View 32 v70,2013-05-27 12:08:00,
2013-05-27 08:13:00,64.0,61.3,30.13,West,270,1.0,3.0,91,0.00,,,0.00,Weather View 32 v70,2013-05-27 12:13:00,
2013-05-27 08:18:00,64.0,61.0,30.13,WSW,248,0.0,3.0,90,0.00,,,0.00,Weather View 32 v70,2013-05-27 12:18:00,
2013-05-27 08:23:00,65.0,62.0,30.13,East,90,0.0,3.0,90,0.00,,,0.00,Weather View 32 v70,2013-05-27 12:23:00,
2013-05-27 08:28:00,66.0,62.7,30.13,SSE,158,1.0,3.0,89,0.00,,,0.00,Weather View 32 v70,2013-05-27 12:28:00,
2013-05-27 08:33:00,66.0,62.3,30.13,WSW,248,0.0,3.0,88,0.00,,,0.00,Weather View 32 v70,2013-05-27 12:33:00,
2013-05-27 08:38:00,67.0,63.0,30.13,SSE,158,0.0,3.0,87,0.00,,,0.00,Weather View 32 v70,2013-05-27 12:38:00,
2013-05-27 08:43:00,67.0,62.7,30.13,South,180,1.0,4.0,86,0.00,,,0.00,Weather View 32 v70,2013-05-27 12:43:00,
2013-05-27 08:48:00,68.0,63.6,30.13,East,90,1.0,4.0,86,0.00,,,0.00,Weather View 32 v70,2013-05-27 12:48:00,
2013-05-27 08:53:00,68.0,63.3,30.13,South,180,4.0,4.0,85,0.00,,,0.00,Weather View 32 v70,2013-05-27 12:53:00,
2013-05-27 08:58:00,69.0,63.9,30.13,ENE,68,0.0,5.0,84,0.00,,,0.00,Weather View 32 v70,2013-05-27 12:58:00,
2013-05-27 09:04:00,70.0,64.6,30.13,WSW,248,1.0,5.0,83,0.00,,,0.00,Weather View 32 v70,2013-05-27 13:04:00,
2013-05-27 09:09:00,70.0,63.9,30.13,South,180,3.0,5.0,81,0.00,,,0.00,Weather View 32 v70,2013-05-27 13:09:00,
2013-05-27 09:14:00,71.0,64.5,30.13,East,90,1.0,5.0,80,0.00,,,0.00,Weather View 32 v70,2013-05-27 13:14:00,
2013-05-27 09:19:00,71.0,64.1,30.13,South,180,3.0,5.0,79,0.00,,,0.00,Weather View 32 v70,2013-05-27 13:19:00,
2013-05-27 09:24:00,72.0,64.7,30.13,East,90,1.0,5.0,78,0.00,,,0.00,Weather View 32 v70,2013-05-27 13:24:00,
2013-05-27 09:29:00,73.0,65.0,30.13,South,180,1.0,7.0,76,0.00,,,0.00,Weather View 32 v70,2013-05-27 13:29:00,
2013-05-27 09:34:00,73.0,64.6,30.13,South,180,3.0,7.0,75,0.00,,,0.00,Weather View 32 v70,2013-05-27 13:34:00,
2013-05-27 09:39:00,74.0,64.4,30.13,East,90,1.0,8.0,72,0.00,,,0.00,Weather View 32 v70,2013-05-27 13:39:00,
2013-05-27 09:44:00,74.0,64.4,30.13,West,270,2.0,8.0,72,0.00,,,0.00,Weather View 32 v70,2013-05-27 13:44:00,
2013-05-27 09:49:00,75.0,64.5,30.13,SSE,158,4.0,8.0,70,0.00,,,0.00,Weather View 32 v70,2013-05-27 13:49:00,
2013-05-27 09:54:00,75.0,64.1,30.13,SSE,158,1.0,8.0,69,0.00,,,0.00,Weather View 32 v70,2013-05-27 13:54:00,
2013-05-27 09:59:00,76.0,65.1,30.13,ENE,68,0.0,8.0,69,0.00,,,0.00,Weather View 32 v70,2013-05-27 13:59:00,
2013-05-27 10:04:00,76.0,63.8,30.13,SSE,158,1.0,8.0,66,0.00,,,0.00,Weather View 32 v70,2013-05-27 14:04:00,
2013-05-27 10:09:00,77.0,63.8,30.12,West,270,1.0,8.0,64,0.00,,,0.00,Weather View 32 v70,2013-05-27 14:09:00,
2013-05-27 10:14:00,78.0,63.9,30.12,SSE,158,6.0,8.0,62,0.00,,,0.00,Weather View 32 v70,2013-05-27 14:14:00,
2013-05-27 10:19:00,79.0,64.3,30.12,WSW,248,3.0,8.0,61,0.00,,,0.00,Weather View 32 v70,2013-05-27 14:19:00,
2013-05-27 10:24:00,79.0,62.9,30.12,North,0,3.0,8.0,58,0.00,,,0.00,Weather View 32 v70,2013-05-27 14:24:00,
2013-05-27 10:29:00,80.0,62.8,30.12,South,180,4.0,8.0,56,0.00,,,0.00,Weather View 32 v70,2013-05-27 14:29:00,
2013-05-27 10:34:00,81.0,63.8,30.12,ENE,68,3.0,8.0,56,0.00,,,0.00,Weather View 32 v70,2013-05-27 14:34:00,
2013-05-27 10:39:00,81.0,62.7,30.12,ENE,68,3.0,10.0,54,0.00,,,0.00,Weather View 32 v70,2013-05-27 14:39:00,
2013-05-27 10:44:00,82.0,62.6,30.12,SSE,158,11.0,11.0,52,0.00,,,0.00,Weather View 32 v70,2013-05-27 14:44:00,
2013-05-27 10:49:00,83.0,62.4,30.12,SSE,158,3.0,13.0,50,0.00,,,0.00,Weather View 32 v70,2013-05-27 14:49:00,
2013-05-27 10:54:00,84.0,62.7,30.12,SSE,158,6.0,13.0,49,0.00,,,0.00,Weather View 32 v70,2013-05-27 14:54:00,
2013-05-27 10:59:00,84.0,62.1,30.12,WSW,248,6.0,13.0,48,0.00,,,0.00,Weather View 32 v70,2013-05-27 14:59:00,
2013-05-27 11:04:00,85.0,63.0,30.12,North,0,3.0,13.0,48,0.00,,,0.00,Weather View 32 v70,2013-05-27 15:04:00,
2013-05-27 11:09:00,85.0,61.8,30.11,East,90,6.0,13.0,46,0.00,,,0.00,Weather View 32 v70,2013-05-27 15:09:00,
2013-05-27 11:14:00,86.0,62.7,30.11,WSW,248,1.0,13.0,46,0.00,,,0.00,Weather View 32 v70,2013-05-27 15:14:00,
2013-05-27 11:19:00,86.0,63.3,30.11,South,180,5.0,13.0,47,0.00,,,0.00,Weather View 32 v70,2013-05-27 15:19:00,
2013-05-27 11:24:00,87.0,63.0,30.11,West,270,2.0,13.0,45,0.00,,,0.00,Weather View 32 v70,2013-05-27 15:24:00,
2013-05-27 11:29:00,87.0,62.4,30.11,East,90,2.0,13.0,44,0.00,,,0.00,Weather View 32 v70,2013-05-27 15:29:00,
2013-05-27 11:34:00,87.0,62.4,30.11,SSE,158,5.0,13.0,44,0.00,,,0.00,Weather View 32 v70,2013-05-27 15:34:00,
2013-05-27 11:40:00,88.0,62.6,30.11,ENE,68,0.0,13.0,43,0.00,,,0.00,Weather View 32 v70,2013-05-27 15:40:00,
2013-05-27 11:44:00,88.0,61.9,30.11,East,90,5.0,13.0,42,0.00,,,0.00,Weather View 32 v70,2013-05-27 15:44:00,
2013-05-27 11:50:00,89.0,61.4,30.10,WSW,248,1.0,12.0,40,0.00,,,0.00,Weather View 32 v70,2013-05-27 15:50:00,
2013-05-27 11:55:00,89.0,62.1,30.10,ENE,68,5.0,12.0,41,0.00,,,0.00,Weather View 32 v70,2013-05-27 15:55:00,
2013-05-27 12:00:00,89.0,62.8,30.10,WSW,248,6.0,12.0,42,0.00,,,0.00,Weather View 32 v70,2013-05-27 16:00:00,
2013-05-27 12:05:00,89.0,62.1,30.10,WSW,248,4.0,12.0,41,0.00,,,0.00,Weather View 32 v70,2013-05-27 16:05:00,
2013-05-27 12:10:00,90.0,63.0,30.10,ENE,68,2.0,12.0,41,0.00,,,0.00,Weather View 32 v70,2013-05-27 16:10:00,
2013-05-27 12:15:00,90.0,62.3,30.10,WSW,248,5.0,12.0,40,0.00,,,0.00,Weather View 32 v70,2013-05-27 16:15:00,
2013-05-27 12:20:00,90.0,62.3,30.09,North,0,2.0,12.0,40,0.00,,,0.00,Weather View 32 v70,2013-05-27 16:20:00,
2013-05-27 12:25:00,90.0,62.3,30.09,WSW,248,6.0,12.0,40,0.00,,,0.00,Weather View 32 v70,2013-05-27 16:25:00,
2013-05-27 12:30:00,90.0,63.0,30.10,ENE,68,2.0,11.0,41,0.00,,,0.00,Weather View 32 v70,2013-05-27 16:30:00,
2013-05-27 12:35:00,90.0,64.4,30.10,SSE,158,5.0,11.0,43,0.00,,,0.00,Weather View 32 v70,2013-05-27 16:35:00,
2013-05-27 12:40:00,90.0,61.6,30.10,ENE,68,1.0,11.0,39,0.00,,,0.00,Weather View 32 v70,2013-05-27 16:40:00,
2013-05-27 12:45:00,90.0,62.3,30.09,SSE,158,5.0,11.0,40,0.00,,,0.00,Weather View 32 v70,2013-05-27 16:45:00,
2013-05-27 12:50:00,90.0,62.3,30.09,South,180,3.0,11.0,40,0.00,,,0.00,Weather View 32 v70,2013-05-27 16:50:00,
2013-05-27 12:55:00,90.0,65.7,30.09,South,180,2.0,11.0,45,0.00,,,0.00,Weather View 32 v70,2013-05-27 16:55:00,
2013-05-27 13:00:00,90.0,63.0,30.09,ENE,68,2.0,11.0,41,0.00,,,0.00,Weather View 32 v70,2013-05-27 17:00:00,
2013-05-27 13:05:00,90.0,63.7,30.09,SSE,158,2.0,11.0,42,0.00,,,0.00,Weather View 32 v70,2013-05-27 17:05:00,
2013-05-27 13:10:00,90.0,62.3,30.09,ENE,68,1.0,11.0,40,0.00,,,0.00,Weather View 32 v70,2013-05-27 17:10:00,
2013-05-27 13:15:00,91.0,62.5,30.09,East,90,2.0,11.0,39,0.00,,,0.00,Weather View 32 v70,2013-05-27 17:15:00,
2013-05-27 13:20:00,91.0,63.9,30.09,South,180,3.0,11.0,41,0.00,,,0.00,Weather View 32 v70,2013-05-27 17:20:00,
2013-05-27 13:25:00,90.0,61.6,30.09,South,180,4.0,11.0,39,0.00,,,0.00,Weather View 32 v70,2013-05-27 17:25:00,
2013-05-27 13:30:00,90.0,65.1,30.08,WSW,248,3.0,11.0,44,0.00,,,0.00,Weather View 32 v70,2013-05-27 17:30:00,
2013-05-27 13:35:00,90.0,63.7,30.09,WSW,248,5.0,11.0,42,0.00,,,0.00,Weather View 32 v70,2013-05-27 17:35:00,
2013-05-27 13:40:00,91.0,63.2,30.09,WSW,248,6.0,10.0,40,0.00,,,0.00,Weather View 32 v70,2013-05-27 17:40:00,
2013-05-27 13:45:00,90.0,60.1,30.08,ENE,68,3.0,10.0,37,0.00,,,0.00,Weather View 32 v70,2013-05-27 17:45:00,
2013-05-27 13:50:00,91.0,61.0,30.08,East,90,0.0,9.0,37,0.00,,,0.00,Weather View 32 v70,2013-05-27 17:50:00,
2013-05-27 13:55:00,91.0,61.8,30.08,West,270,3.0,9.0,38,0.00,,,0.00,Weather View 32 v70,2013-05-27 17:55:00,
2013-05-27 14:00:00,92.0,62.6,30.08,WSW,248,6.0,9.0,38,0.00,,,0.00,Weather View 32 v70,2013-05-27 18:00:00,
2013-05-27 14:05:00,92.0,61.1,30.08,WSW,248,3.0,9.0,36,0.00,,,0.00,Weather View 32 v70,2013-05-27 18:05:00,
2013-05-27 14:10:00,92.0,60.3,30.08,East,90,1.0,9.0,35,0.00,,,0.00,Weather View 32 v70,2013-05-27 18:10:00,
2013-05-27 14:15:00,92.0,59.5,30.08,North,0,2.0,9.0,34,0.00,,,0.00,Weather View 32 v70,2013-05-27 18:15:00,
2013-05-27 14:20:00,92.0,61.9,30.07,South,180,1.0,9.0,37,0.00,,,0.00,Weather View 32 v70,2013-05-27 18:20:00,
2013-05-27 14:26:00,91.0,60.2,30.08,East,90,3.0,9.0,36,0.00,,,0.00,Weather View 32 v70,2013-05-27 18:26:00,
2013-05-27 14:31:00,92.0,61.1,30.07,West,270,3.0,9.0,36,0.00,,,0.00,Weather View 32 v70,2013-05-27 18:31:00,
2013-05-27 14:36:00,91.0,61.0,30.07,South,180,3.0,9.0,37,0.00,,,0.00,Weather View 32 v70,2013-05-27 18:36:00,
2013-05-27 14:41:00,92.0,60.3,30.07,East,90,1.0,8.0,35,0.00,,,0.00,Weather View 32 v70,2013-05-27 18:41:00,
2013-05-27 14:46:00,91.0,59.4,30.06,WSW,248,5.0,10.0,35,0.00,,,0.00,Weather View 32 v70,2013-05-27 18:46:00,
2013-05-27 14:51:00,89.0,58.5,30.06,West,270,2.0,10.0,36,0.00,,,0.00,Weather View 32 v70,2013-05-27 18:51:00,
2013-05-27 14:56:00,88.0,59.8,30.06,East,90,1.0,10.0,39,0.00,,,0.00,Weather View 32 v70,2013-05-27 18:56:00,
2013-05-27 15:01:00,87.0,59.7,30.05,WSW,248,3.0,10.0,40,0.00,,,0.00,Weather View 32 v70,2013-05-27 19:01:00,
2013-05-27 15:06:00,87.0,60.4,30.06,West,270,3.0,11.0,41,0.00,,,0.00,Weather View 32 v70,2013-05-27 19:06:00,
2013-05-27 15:11:00,87.0,59.7,30.06,East,90,3.0,11.0,40,0.00,,,0.00,Weather View 32 v70,2013-05-27 19:11:00,
2013-05-27 15:16:00,86.0,58.8,30.05,East,90,3.0,11.0,40,0.00,,,0.00,Weather View 32 v70,2013-05-27 19:16:00,
2013-05-27 15:21:00,86.0,60.1,30.05,East,90,3.0,11.0,42,0.00,,,0.00,Weather View 32 v70,2013-05-27 19:21:00,
2013-05-27 15:26:00,86.0,59.5,30.04,WSW,248,3.0,11.0,41,0.00,,,0.00,Weather View 32 v70,2013-05-27 19:26:00,
2013-05-27 15:31:00,86.0,59.5,30.04,East,90,3.0,11.0,41,0.00,,,0.00,Weather View 32 v70,2013-05-27 19:31:00,
2013-05-27 15:36:00,86.0,60.8,30.04,WSW,248,3.0,11.0,43,0.00,,,0.00,Weather View 32 v70,2013-05-27 19:36:00,
2013-05-27 15:41:00,86.0,59.5,30.04,SSE,158,1.0,11.0,41,0.00,,,0.00,Weather View 32 v70,2013-05-27 19:41:00,
2013-05-27 15:46:00,86.0,60.8,30.03,East,90,1.0,11.0,43,0.00,,,0.00,Weather View 32 v70,2013-05-27 19:46:00,
2013-05-27 15:51:00,86.0,60.1,30.03,South,180,6.0,11.0,42,0.00,,,0.00,Weather View 32 v70,2013-05-27 19:51:00,
2013-05-27 15:56:00,86.0,58.8,30.03,ENE,68,1.0,11.0,40,0.00,,,0.00,Weather View 32 v70,2013-05-27 19:56:00,
2013-05-27 16:01:00,86.0,61.5,30.02,NNW,338,1.0,11.0,44,0.00,,,0.00,Weather View 32 v70,2013-05-27 20:01:00,
2013-05-27 16:06:00,86.0,59.5,30.02,WSW,248,3.0,11.0,41,0.00,,,0.00,Weather View 32 v70,2013-05-27 20:06:00,
2013-05-27 16:11:00,87.0,61.0,30.01,WSW,248,10.0,11.0,42,0.00,,,0.00,Weather View 32 v70,2013-05-27 20:11:00,
2013-05-27 16:16:00,87.0,60.4,30.02,SSE,158,4.0,11.0,41,0.00,,,0.00,Weather View 32 v70,2013-05-27 20:16:00,
2013-05-27 16:21:00,87.0,61.0,30.02,WSW,248,6.0,11.0,42,0.00,,,0.00,Weather View 32 v70,2013-05-27 20:21:00,
2013-05-27 16:26:00,87.0,60.4,30.02,North,0,2.0,11.0,41,0.00,,,0.00,Weather View 32 v70,2013-05-27 20:26:00,
2013-05-27 16:31:00,87.0,59.7,30.02,South,180,4.0,10.0,40,0.00,,,0.00,Weather View 32 v70,2013-05-27 20:31:00,
2013-05-27 16:36:00,87.0,61.0,30.01,South,180,3.0,10.0,42,0.00,,,0.00,Weather View 32 v70,2013-05-27 20:36:00,
2013-05-27 16:41:00,86.0,59.5,30.01,East,90,0.0,10.0,41,0.00,,,0.00,Weather View 32 v70,2013-05-27 20:41:00,
2013-05-27 16:46:00,86.0,59.5,30.01,South,180,3.0,10.0,41,0.00,,,0.00,Weather View 32 v70,2013-05-27 20:46:00,
2013-05-27 16:51:00,87.0,60.4,30.01,East,90,5.0,10.0,41,0.00,,,0.00,Weather View 32 v70,2013-05-27 20:51:00,
2013-05-27 16:56:00,86.0,58.8,30.01,East,90,6.0,10.0,40,0.00,,,0.00,Weather View 32 v70,2013-05-27 20:56:00,
2013-05-27 17:01:00,86.0,59.5,30.01,West,270,2.0,10.0,41,0.00,,,0.00,Weather View 32 v70,2013-05-27 21:01:00,
2013-05-27 17:07:00,86.0,59.5,30.01,SSE,158,7.0,10.0,41,0.00,,,0.00,Weather View 32 v70,2013-05-27 21:07:00,
2013-05-27 17:12:00,86.0,60.1,30.01,SSE,158,4.0,10.0,42,0.00,,,0.00,Weather View 32 v70,2013-05-27 21:12:00,
2013-05-27 17:17:00,86.0,60.8,30.01,SSE,158,4.0,10.0,43,0.00,,,0.00,Weather View 32 v70,2013-05-27 21:17:00,
2013-05-27 17:22:00,86.0,60.8,30.01,East,90,1.0,10.0,43,0.00,,,0.00,Weather View 32 v70,2013-05-27 21:22:00,
2013-05-27 17:27:00,86.0,60.8,30.01,South,180,3.0,10.0,43,0.00,,,0.00,Weather View 32 v70,2013-05-27 21:27:00,
2013-05-27 17:32:00,86.0,61.5,30.00,East,90,1.0,10.0,44,0.00,,,0.00,Weather View 32 v70,2013-05-27 21:32:00,
2013-05-27 17:37:00,86.0,61.5,30.00,SSE,158,6.0,10.0,44,0.00,,,0.00,Weather View 32 v70,2013-05-27 21:37:00,
2013-05-27 17:42:00,85.0,60.6,30.01,East,90,6.0,10.0,44,0.00,,,0.00,Weather View 32 v70,2013-05-27 21:42:00,
2013-05-27 17:47:00,85.0,59.9,30.01,South,180,3.0,10.0,43,0.00,,,0.00,Weather View 32 v70,2013-05-27 21:47:00,
2013-05-27 17:52:00,85.0,60.6,30.01,South,180,3.0,10.0,44,0.00,,,0.00,Weather View 32 v70,2013-05-27 21:52:00,
2013-05-27 17:57:00,85.0,60.6,30.00,South,180,1.0,10.0,44,0.00,,,0.00,Weather View 32 v70,2013-05-27 21:57:00,
2013-05-27 18:02:00,85.0,61.8,30.00,East,90,3.0,10.0,46,0.00,,,0.00,Weather View 32 v70,2013-05-27 22:02:00,
2013-05-27 18:07:00,85.0,61.8,30.00,ENE,68,2.0,10.0,46,0.00,,,0.00,Weather View 32 v70,2013-05-27 22:07:00,
2013-05-27 18:12:00,85.0,61.8,30.00,SSE,158,5.0,10.0,46,0.00,,,0.00,Weather View 32 v70,2013-05-27 22:12:00,
2013-05-27 18:17:00,85.0,61.8,30.00,East,90,1.0,10.0,46,0.00,,,0.00,Weather View 32 v70,2013-05-27 22:17:00,
2013-05-27 18:22:00,85.0,63.0,30.00,East,90,3.0,10.0,48,0.00,,,0.00,Weather View 32 v70,2013-05-27 22:22:00,
2013-05-27 18:27:00,84.0,61.5,30.00,East,90,4.0,10.0,47,0.00,,,0.00,Weather View 32 v70,2013-05-27 22:27:00,
2013-05-27 18:32:00,84.0,62.7,30.00,ENE,68,1.0,8.0,49,0.00,,,0.00,Weather View 32 v70,2013-05-27 22:32:00,
2013-05-27 18:37:00,84.0,62.1,30.00,ENE,68,3.0,8.0,48,0.00,,,0.00,Weather View 32 v70,2013-05-27 22:37:00,
2013-05-27 18:42:00,84.0,62.1,30.00,East,90,0.0,8.0,48,0.00,,,0.00,Weather View 32 v70,2013-05-27 22:42:00,
2013-05-27 18:47:00,84.0,62.7,30.00,East,90,1.0,8.0,49,0.00,,,0.00,Weather View 32 v70,2013-05-27 22:47:00,
2013-05-27 18:52:00,84.0,62.7,30.00,East,90,1.0,8.0,49,0.00,,,0.00,Weather View 32 v70,2013-05-27 22:52:00,
2013-05-27 18:57:00,84.0,62.7,30.00,South,180,1.0,8.0,49,0.00,,,0.00,Weather View 32 v70,2013-05-27 22:57:00,
2013-05-27 19:02:00,84.0,62.7,30.00,East,90,3.0,8.0,49,0.00,,,0.00,Weather View 32 v70,2013-05-27 23:02:00,
2013-05-27 19:07:00,84.0,62.7,30.00,East,90,3.0,8.0,49,0.00,,,0.00,Weather View 32 v70,2013-05-27 23:07:00,
2013-05-27 19:12:00,84.0,62.7,30.00,SSE,158,1.0,8.0,49,0.00,,,0.00,Weather View 32 v70,2013-05-27 23:12:00,
2013-05-27 19:17:00,84.0,63.3,30.00,South,180,1.0,8.0,50,0.00,,,0.00,Weather View 32 v70,2013-05-27 23:17:00,
2013-05-27 19:22:00,84.0,62.7,30.00,East,90,3.0,8.0,49,0.00,,,0.00,Weather View 32 v70,2013-05-27 23:22:00,
2013-05-27 19:27:00,83.0,61.8,29.99,WSW,248,3.0,8.0,49,0.00,,,0.00,Weather View 32 v70,2013-05-27 23:27:00,
2013-05-27 19:32:00,83.0,61.8,30.00,East,90,1.0,8.0,49,0.00,,,0.00,Weather View 32 v70,2013-05-27 23:32:00,
2013-05-27 19:38:00,83.0,62.4,30.00,SSE,158,3.0,8.0,50,0.00,,,0.00,Weather View 32 v70,2013-05-27 23:38:00,
2013-05-27 19:43:00,82.0,61.5,29.99,East,90,0.0,8.0,50,0.00,,,0.00,Weather View 32 v70,2013-05-27 23:43:00,
2013-05-27 19:48:00,82.0,62.0,29.99,SSE,158,3.0,8.0,51,0.00,,,0.00,Weather View 32 v70,2013-05-27 23:48:00,
2013-05-27 19:53:00,82.0,62.0,29.99,East,90,1.0,8.0,51,0.00,,,0.00,Weather View 32 v70,2013-05-27 23:53:00,
2013-05-27 19:58:00,82.0,62.6,29.99,East,90,0.0,8.0,52,0.00,,,0.00,Weather View 32 v70,2013-05-27 23:58:00,
2013-05-27 20:03:00,81.0,62.2,29.99,SSE,158,1.0,8.0,53,0.00,,,0.00,Weather View 32 v70,2013-05-28 00:03:00,
2013-05-27 20:08:00,81.0,62.7,29.99,East,90,2.0,8.0,54,0.00,,,0.00,Weather View 32 v70,2013-05-28 00:08:00,
2013-05-27 20:13:00,81.0,63.2,29.99,SSE,158,3.0,8.0,55,0.00,,,0.00,Weather View 32 v70,2013-05-28 00:13:00,
2013-05-27 20:18:00,80.0,62.3,30.00,East,90,2.0,8.0,55,0.00,,,0.00,Weather View 32 v70,2013-05-28 00:18:00,
2013-05-27 20:23:00,80.0,63.3,30.00,East,90,0.0,8.0,57,0.00,,,0.00,Weather View 32 v70,2013-05-28 00:23:00,
2013-05-27 20:28:00,80.0,63.8,30.00,East,90,1.0,7.0,58,0.00,,,0.00,Weather View 32 v70,2013-05-28 00:28:00,
2013-05-27 20:33:00,79.0,63.4,30.00,East,90,2.0,7.0,59,0.00,,,0.00,Weather View 32 v70,2013-05-28 00:33:00,
2013-05-27 20:38:00,79.0,63.9,30.00,SSE,158,1.0,6.0,60,0.00,,,0.00,Weather View 32 v70,2013-05-28 00:38:00,
2013-05-27 20:43:00,79.0,63.9,30.00,East,90,0.0,6.0,60,0.00,,,0.00,Weather View 32 v70,2013-05-28 00:43:00,
2013-05-27 20:48:00,79.0,64.3,30.00,East,90,2.0,6.0,61,0.00,,,0.00,Weather View 32 v70,2013-05-28 00:48:00,
2013-05-27 20:53:00,79.0,64.8,30.00,East,90,1.0,6.0,62,0.00,,,0.00,Weather View 32 v70,2013-05-28 00:53:00,
2013-05-27 20:58:00,79.0,64.8,30.00,East,90,3.0,5.0,62,0.00,,,0.00,Weather View 32 v70,2013-05-28 00:58:00,
2013-05-27 21:03:00,78.0,63.9,30.00,East,90,2.0,4.0,62,0.00,,,0.00,Weather View 32 v70,2013-05-28 01:03:00,
2013-05-27 21:08:00,78.0,63.4,30.00,East,90,1.0,4.0,61,0.00,,,0.00,Weather View 32 v70,2013-05-28 01:08:00,
2013-05-27 21:13:00,79.0,64.8,30.00,East,90,1.0,5.0,62,0.00,,,0.00,Weather View 32 v70,2013-05-28 01:13:00,
2013-05-27 21:18:00,79.0,64.3,29.99,SSE,158,2.0,5.0,61,0.00,,,0.00,Weather View 32 v70,2013-05-28 01:18:00,
2013-05-27 21:23:00,79.0,64.3,30.00,East,90,1.0,5.0,61,0.00,,,0.00,Weather View 32 v70,2013-05-28 01:23:00,
2013-05-27 21:28:00,78.0,63.9,30.00,East,90,3.0,5.0,62,0.00,,,0.00,Weather View 32 v70,2013-05-28 01:28:00,
2013-05-27 21:33:00,78.0,63.9,29.99,East,90,1.0,5.0,62,0.00,,,0.00,Weather View 32 v70,2013-05-28 01:33:00,
2013-05-27 21:38:00,78.0,64.3,30.00,East,90,1.0,5.0,63,0.00,,,0.00,Weather View 32 v70,2013-05-28 01:38:00,
2013-05-27 21:43:00,78.0,64.8,30.00,SSE,158,3.0,5.0,64,0.00,,,0.00,Weather View 32 v70,2013-05-28 01:43:00,
2013-05-27 21:48:00,78.0,64.8,30.00,East,90,2.0,5.0,64,0.00,,,0.00,Weather View 32 v70,2013-05-28 01:48:00,
2013-05-27 21:53:00,77.0,63.8,30.00,East,90,5.0,5.0,64,0.00,,,0.00,Weather View 32 v70,2013-05-28 01:53:00,
2013-05-27 21:58:00,77.0,64.3,30.00,East,90,2.0,7.0,65,0.00,,,0.00,Weather View 32 v70,2013-05-28 01:58:00,
2013-05-27 22:03:00,77.0,64.3,30.00,SSE,158,4.0,7.0,65,0.00,,,0.00,Weather View 32 v70,2013-05-28 02:03:00,
2013-05-27 22:08:00,77.0,64.3,30.00,SSE,158,4.0,7.0,65,0.00,,,0.00,Weather View 32 v70,2013-05-28 02:08:00,
2013-05-27 22:14:00,77.0,64.7,30.00,SSE,158,3.0,7.0,66,0.00,,,0.00,Weather View 32 v70,2013-05-28 02:14:00,
2013-05-27 22:19:00,77.0,64.7,30.00,SSE,158,3.0,7.0,66,0.00,,,0.00,Weather View 32 v70,2013-05-28 02:19:00,
2013-05-27 22:24:00,76.0,63.8,30.00,East,90,0.0,7.0,66,0.00,,,0.00,Weather View 32 v70,2013-05-28 02:24:00,
2013-05-27 22:29:00,76.0,64.2,30.00,East,90,4.0,7.0,67,0.00,,,0.00,Weather View 32 v70,2013-05-28 02:29:00,
2013-05-27 22:34:00,76.0,64.2,30.00,SSE,158,4.0,7.0,67,0.00,,,0.00,Weather View 32 v70,2013-05-28 02:34:00,
2013-05-27 22:39:00,76.0,64.6,30.00,SSE,158,2.0,7.0,68,0.00,,,0.00,Weather View 32 v70,2013-05-28 02:39:00,
2013-05-27 22:44:00,76.0,64.6,30.01,East,90,4.0,7.0,68,0.00,,,0.00,Weather View 32 v70,2013-05-28 02:44:00,
2013-05-27 22:49:00,76.0,65.1,30.01,SSE,158,5.0,7.0,69,0.00,,,0.00,Weather View 32 v70,2013-05-28 02:49:00,
2013-05-27 22:54:00,75.0,64.1,30.01,SSE,158,3.0,7.0,69,0.00,,,0.00,Weather View 32 v70,2013-05-28 02:54:00,
2013-05-27 22:59:00,75.0,64.5,30.01,East,90,1.0,7.0,70,0.00,,,0.00,Weather View 32 v70,2013-05-28 02:59:00,
2013-05-27 23:04:00,75.0,64.9,30.01,East,90,1.0,7.0,71,0.00,,,0.00,Weather View 32 v70,2013-05-28 03:04:00,
2013-05-27 23:09:00,74.0,64.8,30.02,SSE,158,3.0,7.0,73,0.00,,,0.00,Weather View 32 v70,2013-05-28 03:09:00,
2013-05-27 23:14:00,74.0,64.4,30.02,East,90,3.0,7.0,72,0.00,,,0.00,Weather View 32 v70,2013-05-28 03:14:00,
2013-05-27 23:19:00,74.0,64.8,30.02,SSE,158,3.0,7.0,73,0.00,,,0.00,Weather View 32 v70,2013-05-28 03:19:00,
2013-05-27 23:24:00,74.0,64.8,30.02,East,90,2.0,7.0,73,0.00,,,0.00,Weather View 32 v70,2013-05-28 03:24:00,
2013-05-27 23:29:00,74.0,64.8,30.02,East,90,1.0,6.0,73,0.00,,,0.00,Weather View 32 v70,2013-05-28 03:29:00,
2013-05-27 23:34:00,74.0,64.8,30.02,East,90,2.0,7.0,73,0.00,,,0.00,Weather View 32 v70,2013-05-28 03:34:00,
2013-05-27 23:39:00,74.0,65.2,30.02,SSE,158,3.0,10.0,74,0.00,,,0.00,Weather View 32 v70,2013-05-28 03:39:00,
2013-05-27 23:44:00,74.0,65.5,30.02,East,90,5.0,10.0,75,0.00,,,0.00,Weather View 32 v70,2013-05-28 03:44:00,
2013-05-27 23:49:00,74.0,65.5,30.03,SSE,158,3.0,10.0,75,0.00,,,0.00,Weather View 32 v70,2013-05-28 03:49:00,
2013-05-27 23:54:00,74.0,65.9,30.03,East,90,5.0,10.0,76,0.00,,,0.00,Weather View 32 v70,2013-05-28 03:54:00,
2013-05-27 23:59:00,74.0,65.9,30.03,WSW,248,3.0,10.0,76,0.00,,,0.00,Weather View 32 v70,2013-05-28 03:59:00,